Location: Carlisle
(34.5501°N, 84.5969°W)
Time: 10:54:43
(UTC+00:00)

UNISAT 6 - Pass Details

Date: 04 April 2023
Orbit: 599 x 679 km, 97.7° (Epoch: 07 June)

Event Time Altitude Azimuth Distance (km) Brightness Sun altitude
Rises 09:37:25 0° 135° (SE) 2,915 ? -21.5°
Reaches altitude 10° 09:39:57 10° 121° (ESE) 2,026 ? -21.0°
Maximum altitude 09:43:23 23° 69° (ENE) 1,394 ? -20.4°
Drops below altitude 10° 09:46:54 10° 18° (NNE) 2,076 ? -19.7°
Sets 09:49:31 0° 4° (N) 3,006 ? -19.2°
